Location: Bazugues
(43.4465°N, 0.3432°E)
Time: 14:21:30
(UTC+00:00)

DMSP B5D1-3 - Visible Passes

Search period start: 19 April 2026 00:00
Search period end: 29 April 2026 00:00
Orbit: 758 x 772 km, 98.5° (Epoch: 19 April)

Date Brightness Start Highest point End Pass type
(mag) Time Alt. Az. Time Alt. Az. Time Alt. Az.
19 Apr 7.4 20:14:03 10° NNW 20:17:37 20° WNW 20:21:10 10° WSW visible
20 Apr 8.0 04:14:24 10° E 04:16:25 12° ENE 04:18:25 10° NE visible
20 Apr 6.1 19:36:26 10° N 19:41:07 40° WNW 19:45:47 10° SW visible
21 Apr 7.9 20:40:42 10° NW 20:42:36 12° WNW 20:44:30 10° W visible
22 Apr 7.0 20:02:14 10° NNW 20:06:15 24° WNW 20:10:15 10° WSW visible
23 Apr 5.6 19:24:48 10° N 19:29:41 50° WNW 19:34:32 10° SW visible
24 Apr 7.7 20:28:27 10° NNW 20:31:17 15° WNW 20:34:06 10° W visible
25 Apr 7.8 04:27:01 10° E 04:30:04 16° ENE 04:33:05 10° NNE visible
25 Apr 6.7 19:50:29 10° N 19:54:51 30° WNW 19:59:12 10° SW visible
27 Apr 7.5 20:16:28 10° NNW 20:19:55 19° WNW 20:23:23 10° WSW visible
28 Apr 8.0 04:16:31 10° E 04:18:43 13° ENE 04:20:55 10° NNE visible
28 Apr 6.2 19:38:48 10° N 19:43:26 38° WNW 19:48:03 10° SW visible
